When you browse on this site, cookies collect data to enhance your experience and personalize the content and advertising you see.
Visit our Privacy Policy to learn more. By continuing to use the site, you agree to this use of cookies and data.

Hourly Weather Winchester

Today, 3 July, Friday

Time Temperature Precipitation Wind Pressure Humidity
00:00 +11°C° 0 mm 3 mps 756 mmHg 96%
01:00 +11°C° 0 mm 3 mps 756 mmHg 96%
02:00 +10°C° 0 mm 3 mps 756 mmHg 95%
03:00 +10°C° 0 mm 3 mps 756 mmHg 95%
04:00 +11°C° 0 mm 4 mps 756 mmHg 93%
05:00 +11°C° 0 mm 4 mps 757 mmHg 91%
06:00 +12°C° 0 mm 4 mps 757 mmHg 89%
07:00 +13°C° 0 mm 5 mps 757 mmHg 84%
08:00 +14°C° 0 mm 5 mps 757 mmHg 80%
09:00 +15°C° 0 mm 6 mps 757 mmHg 75%
10:00 +16°C° 0 mm 7 mps 757 mmHg 72%
11:00 +17°C° 0 mm 7 mps 757 mmHg 68%
12:00 +18°C° 0 mm 8 mps 757 mmHg 65%
13:00 +18°C° 0 mm 8 mps 757 mmHg 68%
14:00 +17°C° 0 mm 8 mps 757 mmHg 71%
15:00 +17°C° 0 mm 9 mps 757 mmHg 74%
16:00 +16°C° 0.1 mm 8 mps 756 mmHg 79%
17:00 +15°C° 0.1 mm 8 mps 756 mmHg 84%
18:00 +13°C° 0.1 mm 8 mps 756 mmHg 89%
19:00 +13°C° 0.2 mm 8 mps 756 mmHg 90%
20:00 +13°C° 0.2 mm 8 mps 756 mmHg 92%
21:00 +13°C° 0.2 mm 8 mps 756 mmHg 94%
22:00 +13°C° 0 mm 8 mps 756 mmHg 95%
23:00 +13°C° 0 mm 8 mps 755 mmHg 95%

Tomorrow, 4 July, Saturday

Time Temperature Precipitation Wind Pressure Humidity
00:00 +15°C° 0 mm 8 mps 755 mmHg 96%
01:00 +15°C° 0 mm 7 mps 755 mmHg 96%
02:00 +15°C° 0 mm 7 mps 755 mmHg 96%
03:00 +15°C° 0 mm 7 mps 754 mmHg 96%
04:00 +15°C° 0.1 mm 7 mps 754 mmHg 96%
05:00 +16°C° 0.1 mm 7 mps 754 mmHg 95%
06:00 +16°C° 0.1 mm 7 mps 754 mmHg 95%
07:00 +16°C° 0.5 mm 7 mps 754 mmHg 96%
08:00 +16°C° 0.5 mm 8 mps 753 mmHg 96%
09:00 +16°C° 0.5 mm 8 mps 753 mmHg 96%
10:00 +16°C° 0.3 mm 8 mps 753 mmHg 95%
11:00 +17°C° 0.3 mm 8 mps 753 mmHg 95%
12:00 +17°C° 0.3 mm 8 mps 753 mmHg 94%
13:00 +17°C° 0 mm 7 mps 753 mmHg 93%
14:00 +17°C° 0 mm 7 mps 753 mmHg 91%
15:00 +18°C° 0 mm 7 mps 753 mmHg 90%
16:00 +18°C° 0 mm 7 mps 753 mmHg 90%
17:00 +18°C° 0 mm 7 mps 753 mmHg 90%
18:00 +17°C° 0 mm 6 mps 753 mmHg 90%
19:00 +17°C° 0 mm 6 mps 754 mmHg 90%
20:00 +17°C° 0 mm 6 mps 754 mmHg 91%
21:00 +17°C° 0 mm 6 mps 754 mmHg 91%
22:00 +16°C° 0 mm 6 mps 754 mmHg 91%
23:00 +16°C° 0 mm 6 mps 754 mmHg 92%

Day after tomorrow, 5 July, Sunday

Time Temperature Precipitation Wind Pressure Humidity
00:00 +15°C° 0 mm 6 mps 754 mmHg 92%
01:00 +16°C° 0 mm 6 mps 754 mmHg 91%
02:00 +16°C° 0 mm 7 mps 753 mmHg 90%
03:00 +16°C° 0 mm 7 mps 753 mmHg 88%
04:00 +16°C° 0 mm 8 mps 753 mmHg 87%
05:00 +17°C° 0 mm 9 mps 752 mmHg 86%
06:00 +17°C° 0 mm 10 mps 752 mmHg 85%
07:00 +17°C° 0 mm 9 mps 752 mmHg 85%
08:00 +18°C° 0 mm 9 mps 752 mmHg 85%
09:00 +18°C° 0 mm 9 mps 752 mmHg 85%
10:00 +18°C° 0.1 mm 9 mps 752 mmHg 82%
11:00 +18°C° 0.1 mm 9 mps 752 mmHg 79%
12:00 +18°C° 0.1 mm 9 mps 753 mmHg 76%
13:00 +18°C° 0 mm 9 mps 753 mmHg 72%
14:00 +18°C° 0 mm 9 mps 753 mmHg 68%
15:00 +18°C° 0 mm 9 mps 753 mmHg 64%
16:00 +17°C° 0 mm 9 mps 753 mmHg 65%
17:00 +17°C° 0 mm 8 mps 753 mmHg 66%
18:00 +16°C° 0 mm 7 mps 754 mmHg 67%
19:00 +14°C° 0 mm 7 mps 754 mmHg 70%
20:00 +13°C° 0 mm 6 mps 754 mmHg 73%
21:00 +11°C° 0 mm 6 mps 755 mmHg 77%
22:00 +11°C° 0 mm 6 mps 755 mmHg 78%
23:00 +10°C° 0 mm 6 mps 755 mmHg 80%

6 July, Monday

Time Temperature Precipitation Wind Pressure Humidity
00:00 +10°C° 0 mm 6 mps 755 mmHg 81%
01:00 +9°C° 0 mm 6 mps 755 mmHg 82%
02:00 +9°C° 0 mm 6 mps 755 mmHg 83%
03:00 +9°C° 0 mm 6 mps 755 mmHg 84%
04:00 +9°C° 0 mm 6 mps 755 mmHg 82%
05:00 +10°C° 0 mm 6 mps 755 mmHg 80%
06:00 +11°C° 0 mm 7 mps 756 mmHg 78%
07:00 +12°C° 0 mm 7 mps 756 mmHg 74%
08:00 +14°C° 0 mm 7 mps 757 mmHg 70%
09:00 +15°C° 0 mm 7 mps 758 mmHg 66%
10:00 +16°C° 0 mm 7 mps 758 mmHg 63%
11:00 +17°C° 0 mm 7 mps 759 mmHg 61%
12:00 +18°C° 0 mm 7 mps 759 mmHg 58%
13:00 +18°C° 0 mm 7 mps 760 mmHg 58%
14:00 +19°C° 0 mm 6 mps 760 mmHg 58%
15:00 +20°C° 0 mm 6 mps 761 mmHg 57%
16:00 +19°C° 0 mm 6 mps 761 mmHg 59%
17:00 +17°C° 0 mm 5 mps 761 mmHg 62%
18:00 +17°C° 0 mm 5 mps 761 mmHg 64%
19:00 +15°C° 0 mm 4 mps 762 mmHg 69%
20:00 +13°C° 0 mm 4 mps 762 mmHg 74%
21:00 +11°C° 0 mm 3 mps 763 mmHg 78%
22:00 +10°C° 0 mm 3 mps 763 mmHg 81%
23:00 +9°C° 0 mm 2 mps 763 mmHg 83%

7 July, Tuesday

Time Temperature Precipitation Wind Pressure Humidity
00:00 +9°C° 0 mm 2 mps 763 mmHg 86%
01:00 +8°C° 0 mm 2 mps 763 mmHg 87%
02:00 +8°C° 0 mm 2 mps 763 mmHg 88%
03:00 +8°C° 0 mm 2 mps 763 mmHg 88%
04:00 +9°C° 0 mm 2 mps 763 mmHg 86%
05:00 +10°C° 0 mm 2 mps 763 mmHg 83%
06:00 +12°C° 0 mm 2 mps 763 mmHg 80%
07:00 +13°C° 0 mm 2 mps 763 mmHg 74%
08:00 +15°C° 0 mm 2 mps 763 mmHg 68%
09:00 +17°C° 0 mm 2 mps 763 mmHg 61%
10:00 +18°C° 0 mm 2 mps 763 mmHg 59%
11:00 +18°C° 0 mm 2 mps 763 mmHg 56%
12:00 +19°C° 0 mm 2 mps 763 mmHg 54%
13:00 +19°C° 0 mm 3 mps 763 mmHg 54%
14:00 +20°C° 0 mm 3 mps 763 mmHg 55%
15:00 +20°C° 0 mm 3 mps 763 mmHg 56%
16:00 +20°C° 0 mm 3 mps 763 mmHg 58%
17:00 +19°C° 0 mm 2 mps 762 mmHg 61%
18:00 +19°C° 0 mm 2 mps 762 mmHg 63%
19:00 +18°C° 0 mm 2 mps 762 mmHg 70%
20:00 +16°C° 0 mm 2 mps 762 mmHg 77%
21:00 +14°C° 0 mm 1 mps 762 mmHg 83%
22:00 +14°C° 0 mm 1 mps 762 mmHg 84%
23:00 +13°C° 0 mm 2 mps 762 mmHg 85%

8 July, Wednesday

Time Temperature Precipitation Wind Pressure Humidity
00:00 +12°C° 0 mm 2 mps 762 mmHg 86%
01:00 +12°C° 0 mm 1 mps 762 mmHg 85%
02:00 +12°C° 0 mm 1 mps 761 mmHg 84%
03:00 +11°C° 0 mm 1 mps 761 mmHg 83%
04:00 +12°C° 0 mm 1 mps 761 mmHg 80%
05:00 +13°C° 0 mm 1 mps 761 mmHg 76%
06:00 +14°C° 0 mm 1 mps 761 mmHg 73%
07:00 +16°C° 0 mm 1 mps 761 mmHg 69%
08:00 +17°C° 0 mm 2 mps 761 mmHg 65%
09:00 +19°C° 0 mm 2 mps 761 mmHg 61%
10:00 +20°C° 0 mm 2 mps 761 mmHg 59%
11:00 +21°C° 0 mm 3 mps 760 mmHg 57%
12:00 +22°C° 0 mm 3 mps 760 mmHg 54%
13:00 +22°C° 0 mm 3 mps 760 mmHg 55%
14:00 +22°C° 0 mm 3 mps 759 mmHg 56%
15:00 +22°C° 0 mm 4 mps 759 mmHg 56%
16:00 +22°C° 0 mm 3 mps 759 mmHg 59%
17:00 +21°C° 0 mm 3 mps 758 mmHg 62%
18:00 +20°C° 0 mm 3 mps 758 mmHg 65%
19:00 +19°C° 0 mm 3 mps 758 mmHg 71%
20:00 +17°C° 0 mm 2 mps 758 mmHg 77%
21:00 +15°C° 0 mm 2 mps 758 mmHg 83%
22:00 +14°C° 0 mm 2 mps 758 mmHg 84%
23:00 +13°C° 0 mm 2 mps 757 mmHg 84%
Show more